Location: Csohesd
(46.2500°N, 22.6167°E)
Time: 06:12:04
(UTC+00:00)

NOSS 3-1 (A) - Pass Details

Date: 21 October 2021
Orbit: 721 x 1491 km, 63.4° (Epoch: 22 November)

Event Time Altitude Azimuth Distance (km) Brightness Sun altitude
Rises 18:12:42 0° 222° (SW) 3,194 6.6 -28.2°
Reaches altitude 10° 18:14:57 10° 224° (SW) 2,325 5.8 -28.6°
Enters shadow 18:20:11 78° 303° (WNW) 883 3.2 -29.5°
